[[{"header":{"parameterUnit":"m.s-1","parameterCategory":1,"la1":30.2991,"la2":30.254,"lo1":-89.0895,"lo2":-89.0444,"dy":0.0017,"dx":0.0017,"nx":28,"ny":28,"refTime":"2025-01-05T03:00:00:Z","depth":0,"parameterNumber":2,"parameterNumberName":"U-component_of_WINDS"},"data":[0,0,0,0,0,0,0,0,0,0,0,0,0,0,0,0,0,0,0,0,0,0,0,0,0,0,0,0,0,0,0,0,0,0,0,0,0,0,0,0,0,0,0,0,0,0,0,0,0,0,0,0,0,0,0,0,0,0,-6.1542,-6.1543,0,-6.1597,-6.1598,-6.1599,-6.1474,-6.147,-6.1466,-6.1462,-6.1516,-6.1521,-6.1526,0,0,0,0,0,0,0,0,0,0,0,0,0,-6.1326,-6.1331,-6.1542,-6.1543,-6.1543,-6.1597,-6.1598,-6.1599,-6.1475,-6.147,-6.1465,-6.146,-6.1515,-6.1521,-6.1527,0,0,0,0,0,0,0,0,0,0,0,0,0,-6.1405,-6.1332,-6.1542,-6.1488,-6.1484,-6.1597,-6.1598,-6.1599,-6.1476,-6.147,-6.1464,-6.1458,-6.1513,-6.152,-6.1528,-6.1695,0,0,-6.1551,-6.1555,0,0,0,0,0,0,0,0,-6.14,-6.1413,-6.1495,-6.1492,-6.1487,-6.1523,-6.1541,-6.1631,-6.1477,-6.1479,-6.1462,-6.1455,-6.1523,-6.153,-6.1553,-6.1697,-6.17,-6.1552,-6.1557,-6.156,-6.1562,0,0,0,0,0,0,0,-6.1395,-6.1409,-6.1564,-6.1497,-6.1492,-6.146,-6.1465,-6.1558,-6.1534,-6.1478,-6.1469,-6.1478,-6.152,-6.1546,-6.1553,-6.1701,-6.1552,-6.1559,-6.1563,-6.1566,-6.1982,-6.1988,0,0,0,0,0,0,-6.1397,-6.1406,-6.1562,-6.1565,-6.1428,-6.1469,-6.1474,-6.1517,-6.1532,-6.1529,-6.1483,-6.1472,-6.1536,-6.1544,-6.1555,-6.1748,-6.156,-6.1567,-6.1572,-6.1976,-6.1983,-6.199,0,0,0,0,0,0,-6.1393,-6.1412,-6.156,-6.1483,-6.15,-6.1479,-6.1529,-6.1522,-6.1547,-6.1536,-6.153,-6.1514,-6.1531,-6.1544,-6.166,-6.1748,-6.1571,-6.1578,-6.1968,-6.1978,-6.1987,-6.2139,0,0,0,0,0,0,-6.1387,-6.1411,-6.1475,-6.1486,-6.1504,-6.1666,-6.1534,-6.1527,-6.1561,-6.1547,-6.1564,-6.1561,-6.1528,-6.165,-6.1668,-6.1756,-6.1584,-6.196,-6.1972,-6.1984,-6.2126,-6.2152,-6.2175,0,0,0,0,0,-6.138,-6.1516,-6.1479,-6.1498,-6.1584,-6.1671,-6.1682,-6.1641,-6.1569,-6.1632,-6.1625,-6.156,-6.1737,-6.1663,-6.1682,-6.1774,-6.1954,-6.1969,-6.1983,-6.2114,-6.2147,-6.2175,0,0,0,0,0,0,-6.1515,-6.1516,-6.1475,-6.1619,-6.1646,-6.165,-6.1728,-6.1678,-6.1725,-6.171,-6.1658,-6.1662,-6.1788,-6.1793,-6.171,-6.1935,-6.1833,-6.1852,-6.1926,-6.1957,-6.1981,-6.1975,-6.159,0,0,0,0,0,-6.1562,-6.1634,-6.1631,-6.1758,-6.1773,-6.1749,-6.1786,-6.1753,-6.1778,-6.1789,-6.1789,-6.1816,-6.1877,-6.1918,-6.1974,-6.2128,-6.2127,-6.22,-6.2225,-6.2245,-6.2261,-6.2339,-6.237,-6.2038,-6.2037,-6.2037,0,0,-6.1659,-6.1668,-6.1716,-6.1785,-6.1802,-6.1875,-6.1759,-6.1843,-6.1896,-6.1801,-6.191,-6.1912,-6.1938,-6.2073,-6.2133,-6.2081,-6.2353,-6.2264,-6.228,-6.2284,-6.2357,-6.2388,-6.2416,-6.2047,-6.2046,-6.2044,0,0,-6.1871,-6.1888,-6.1994,-6.2014,-6.2041,-6.2024,-6.205,-6.2062,-6.206,-6.2169,-6.2098,-6.2161,-6.2269,-6.2289,-6.2314,-6.2536,-6.2476,-6.2556,-6.2683,-6.276,-6.2786,-6.2809,-6.2884,-6.2912,-6.2572,-6.2573,-6.2573,0,-6.1987,-6.2097,-6.2054,-6.2142,-6.2173,-6.2092,-6.2198,-6.2219,-6.2264,-6.2286,-6.2229,-6.236,-6.2373,-6.2509,-6.2563,-6.2588,-6.2613,-6.2551,-6.2786,-6.2808,-6.2829,-6.29,-6.2929,-6.2582,-6.2581,-6.258,-6.2579,0,-6.2236,-6.2313,-6.2396,-6.244,-6.2481,-6.2578,-6.2549,-6.2596,-6.256,-6.2549,-6.266,-6.2673,-6.2728,-6.2759,-6.2725,-6.2891,-6.2858,-6.2795,-6.269,-6.2871,-6.2936,-6.2963,-6.2595,-6.2592,-6.2589,-6.2587,0,0,-6.2532,-6.2553,-6.2584,-6.2602,-6.2627,-6.2685,-6.2778,-6.2833,-6.2872,-6.2907,-6.2981,-6.3074,-6.3015,-6.3043,-6.3012,-6.308,-6.325,-6.3007,-6.3007,-6.3048,-6.3429,-6.3473,-6.3505,-6.3213,-6.3219,-6.3223,-6.3425,0,-6.2739,-6.2898,-6.2863,-6.3019,-6.3088,-6.3013,-6.3093,-6.3116,-6.3109,-6.3166,-6.3158,-6.3223,-6.3143,-6.3158,-6.3223,-6.3216,-6.3325,-6.3201,-6.3278,-6.3282,-6.3269,-6.354,-6.3587,-6.3778,-6.3451,-6.3456,-6.3459,0,-6.3,-6.3044,-6.3208,-6.322,-6.3247,-6.3321,-6.3367,-6.3424,-6.3448,-6.3438,-6.347,-6.3425,-6.3515,-6.3414,-6.3536,-6.3452,-6.3482,-6.3484,-6.349,-6.3491,-6.3377,-6.3544,-6.3838,-6.3865,-6.35,-6.3496,-6.3494,0,-6.3194,-6.3295,-6.3404,-6.3423,-6.3442,-6.3494,-6.3504,-6.3524,-6.3559,-6.36,-6.3621,-6.3674,-6.3701,-6.3741,-6.371,-6.364,-6.3836,-6.3733,-6.3827,-6.3828,-6.3867,-6.3864,-6.4165,-6.3896,-6.3895,-6.3895,-6.3894,0,-6.3426,-6.3527,-6.3491,-6.3558,-6.3669,-6.3629,-6.3739,-6.3741,-6.3759,-6.3823,-6.3763,-6.3825,-6.3783,-6.3841,-6.3818,-6.392,-6.3934,-6.3926,-6.3918,-6.3929,-6.3929,-6.3944,-6.3928,-6.3902,-6.3901,-6.3899,-6.3898,0,-6.3658,-6.3639,-6.3752,-6.3762,-6.3766,-6.3847,-6.3854,-6.3915,-6.3905,-6.3987,-6.4004,-6.3988,-6.4053,-6.4027,-6.4097,-6.4081,-6.421,-6.4188,-6.4202,-6.4194,-6.4287,-6.4277,-6.4604,-6.4643,-6.4354,-6.4357,-6.4359,0,-6.3804,-6.388,-6.3898,-6.3937,-6.3952,-6.4017,-6.4052,-6.4016,-6.4055,-6.4089,-6.4146,-6.4206,-6.4252,-6.4359,-6.4352,-6.4404,-6.4379,-6.449,-6.4386,-6.4394,-6.4374,-6.4368,-6.4374,-6.4509,-6.4512,-6.4515,-6.4517,0,-6.4065,-6.4051,-6.4105,-6.4156,-6.42,-6.4238,-6.4271,-6.4307,-6.4272,-6.4319,-6.4385,-6.4421,-6.4492,-6.4551,-6.4598,-6.4607,-6.4555,-6.4551,-6.4575,-6.4583,-6.4586,-6.4581,-6.4253,-6.4542,-6.454,-6.4538,-6.4537,-6.4536,-6.4255,-6.4318,-6.434,-6.4401,-6.4422,-6.4454,-6.4512,-6.4509,-6.4564,-6.4618,-6.4595,-6.467,-6.4692,-6.475,-6.4766,-6.4824,-6.478,-6.4816,-6.4823,-6.4831,-6.4841,-6.4583,-6.4833,-6.4832,-6.4832,-6.4831,-6.483,0,-6.4507,-6.4518,-6.4576,-6.4623,-6.4671,-6.4622,-6.4656,-6.4699,-6.4766,-6.4792,-6.4839,-6.4914,-6.4971,-6.497,-6.5022,-6.5069,-6.5046,-6.5083,-6.5076,-6.5079,-6.488,-6.4852,-6.51,-6.51,-6.51,-6.51,-6.51,-6.51,-6.4644,-6.4747,-6.4737,-6.4849,-6.4859,-6.4933,-6.4956,-6.4984,-6.5004,-6.5091,-6.5139,-6.5138,-6.5152,-6.5206,-6.5256,-6.5254,-6.5273,-6.5318,-6.5307,-6.512,-6.5093,-6.5067,-6.504,-6.5324,-6.5325,-6.55,-6.5502,-6.5503]},{"header":{"parameterUnit":"m.s-1","parameterCategory":1,"la1":30.2991,"la2":30.254,"lo1":-89.0895,"lo2":-89.0444,"dy":0.0017,"dx":0.0017,"nx":28,"ny":28,"refTime":"2025-01-05T03:00:00:Z","depth":0,"parameterNumber":3,"parameterNumberName":"V-component_of_WINDS"},"data":[0,0,0,0,0,0,0,0,0,0,0,0,0,0,0,0,0,0,0,0,0,0,0,0,0,0,0,0,0,0,0,0,0,0,0,0,0,0,0,0,0,0,0,0,0,0,0,0,0,0,0,0,0,0,0,0,0,0,0.535,0.535,0,0.5379,0.5379,0.5379,0.5368,0.5367,0.5367,0.5366,0.5394,0.5395,0.5397,0,0,0,0,0,0,0,0,0,0,0,0,0,0.5285,0.5286,0.535,0.535,0.5351,0.5379,0.5379,0.538,0.5368,0.5367,0.5367,0.5366,0.5394,0.5395,0.5397,0,0,0,0,0,0,0,0,0,0,0,0,0,0.5313,0.5286,0.535,0.5348,0.5348,0.5379,0.5379,0.538,0.5368,0.5367,0.5366,0.5365,0.5393,0.5395,0.5397,0.543,0,0,0.5403,0.5404,0,0,0,0,0,0,0,0,0.5312,0.5316,0.5348,0.5348,0.5349,0.5369,0.5366,0.5396,0.5369,0.5361,0.5366,0.5365,0.5386,0.5389,0.5396,0.5431,0.5432,0.5403,0.5405,0.5406,0.5406,0,0,0,0,0,0,0,0.531,0.5314,0.5361,0.5349,0.5349,0.5346,0.5349,0.5372,0.5379,0.5361,0.5361,0.5364,0.5386,0.5394,0.5397,0.5433,0.5403,0.5405,0.5406,0.5407,0.5499,0.55,0,0,0,0,0,0,0.5308,0.5313,0.536,0.5362,0.5327,0.5348,0.5352,0.5363,0.5378,0.538,0.5365,0.5364,0.5391,0.5395,0.5398,0.5439,0.5406,0.5408,0.5409,0.5497,0.5499,0.55,0,0,0,0,0,0,0.5306,0.5312,0.5359,0.5337,0.5343,0.535,0.5364,0.5364,0.5373,0.5381,0.5382,0.5372,0.5391,0.5395,0.5423,0.544,0.5408,0.541,0.5496,0.5498,0.5499,0.5521,0,0,0,0,0,0,0.5305,0.5312,0.5324,0.5338,0.5344,0.5383,0.5365,0.5366,0.5377,0.5375,0.5388,0.539,0.539,0.542,0.5425,0.5442,0.5412,0.5494,0.5497,0.5499,0.5519,0.5523,0.5527,0,0,0,0,0,0.5302,0.5328,0.5325,0.533,0.536,0.5384,0.5388,0.5389,0.5378,0.5391,0.5397,0.5389,0.5437,0.5423,0.5428,0.5447,0.5493,0.5496,0.5499,0.5517,0.5523,0.5527,0,0,0,0,0,0,0.5315,0.533,0.5326,0.5357,0.537,0.5382,0.5398,0.5394,0.541,0.5408,0.5407,0.5411,0.544,0.5446,0.5429,0.5481,0.5464,0.5468,0.5476,0.5481,0.5485,0.5483,0.5414,0,0,0,0,0,0.5321,0.534,0.5352,0.5378,0.5385,0.5391,0.5401,0.5401,0.5414,0.5419,0.5427,0.5439,0.5458,0.5469,0.5486,0.552,0.5523,0.5535,0.5539,0.5543,0.5546,0.5567,0.5573,0.5509,0.5509,0.5509,0,0,0.5334,0.5345,0.5357,0.5381,0.5391,0.5411,0.5395,0.5416,0.5431,0.5422,0.545,0.5456,0.547,0.5501,0.5515,0.5507,0.5565,0.5546,0.5549,0.5551,0.557,0.5576,0.5582,0.5511,0.551,0.551,0,0,0.5369,0.5379,0.5403,0.5414,0.5429,0.5433,0.5439,0.5453,0.5458,0.5485,0.548,0.5497,0.5528,0.5539,0.5549,0.5591,0.5585,0.5596,0.5618,0.5638,0.5643,0.5648,0.5664,0.567,0.5599,0.56,0.56,0,0.5384,0.5414,0.5415,0.5438,0.545,0.5444,0.5469,0.5479,0.5499,0.5507,0.5498,0.5538,0.5547,0.5582,0.5592,0.56,0.5607,0.5595,0.5642,0.5647,0.5651,0.5667,0.5673,0.5601,0.5601,0.5601,0.56,0,0.5432,0.5453,0.5471,0.5492,0.5506,0.5529,0.5535,0.5548,0.5547,0.5553,0.5582,0.5593,0.5613,0.5621,0.5619,0.5657,0.5651,0.5642,0.5625,0.5659,0.5674,0.568,0.5603,0.5602,0.5602,0.5602,0,0,0.5475,0.5498,0.5505,0.5516,0.5534,0.555,0.5574,0.5595,0.5608,0.5622,0.5643,0.567,0.5663,0.5674,0.5674,0.5691,0.5726,0.568,0.568,0.569,0.577,0.5778,0.5785,0.5722,0.5724,0.5724,0.5769,0,0.5512,0.5555,0.5558,0.5597,0.5618,0.5614,0.5635,0.5648,0.5654,0.5673,0.5679,0.57,0.5687,0.5694,0.5711,0.5718,0.5742,0.5715,0.5743,0.5744,0.5741,0.5792,0.58,0.5842,0.5775,0.5776,0.5777,0,0.5562,0.558,0.5621,0.5639,0.5648,0.5667,0.5688,0.5705,0.5721,0.5724,0.5738,0.5736,0.5762,0.5744,0.5779,0.5761,0.5772,0.5778,0.5779,0.5783,0.5763,0.5798,0.5855,0.5862,0.5786,0.5785,0.5784,0,0.5591,0.5626,0.5656,0.5665,0.5685,0.5699,0.5708,0.5723,0.5737,0.5754,0.5763,0.5783,0.5795,0.5811,0.5815,0.5801,0.5851,0.5833,0.5855,0.5856,0.5867,0.5866,0.5927,0.5872,0.5872,0.5872,0.5872,0,0.5634,0.566,0.567,0.5688,0.5718,0.5721,0.575,0.5758,0.5772,0.5793,0.5789,0.5808,0.5812,0.5832,0.5835,0.5866,0.587,0.5874,0.5875,0.5875,0.5875,0.5884,0.5881,0.5873,0.5873,0.5873,0.5873,0,0.5671,0.5679,0.5712,0.573,0.5735,0.5756,0.5771,0.5789,0.5796,0.5822,0.5828,0.5838,0.5862,0.5867,0.5895,0.5897,0.5934,0.5931,0.5929,0.5929,0.5952,0.595,0.6021,0.6032,0.5969,0.5969,0.597,0,0.5699,0.5719,0.574,0.5754,0.5764,0.5786,0.5801,0.5805,0.582,0.5841,0.5857,0.5881,0.59,0.5939,0.5948,0.597,0.5969,0.5992,0.5972,0.5972,0.5971,0.597,0.5973,0.5996,0.5997,0.5997,0.5998,0,0.5747,0.575,0.5771,0.5794,0.5812,0.583,0.5847,0.5858,0.5865,0.5882,0.5908,0.5923,0.5953,0.5977,0.5999,0.6008,0.6005,0.6004,0.6011,0.6012,0.6011,0.6014,0.5941,0.6003,0.6002,0.6002,0.6001,0.6001,0.5782,0.58,0.5819,0.5843,0.5857,0.5873,0.5892,0.5902,0.5923,0.5949,0.595,0.5978,0.5995,0.6025,0.6036,0.6058,0.605,0.6059,0.6062,0.6065,0.6068,0.6006,0.6061,0.6061,0.6061,0.6061,0.6061,0,0.5831,0.5844,0.5866,0.5891,0.591,0.5906,0.5925,0.5942,0.5967,0.5983,0.6003,0.6033,0.6057,0.6069,0.6093,0.6109,0.6108,0.6115,0.6114,0.6117,0.6072,0.6065,0.6115,0.6115,0.6115,0.6115,0.6115,0.6115,0.586,0.5892,0.5898,0.5938,0.595,0.5978,0.599,0.6005,0.6019,0.6053,0.6074,0.6082,0.6097,0.6122,0.6145,0.6148,0.6157,0.6166,0.6168,0.6125,0.612,0.6115,0.6108,0.6167,0.6167,0.6212,0.6212,0.6212]}]]